Regional Weather Roundup
Issued by NWS

Home | Current Version | Previous Version | Text Only | Print | Product List | Glossary On
Versions: 1 2 3 4 5 6 7 8 9 10 11 12 13 14 15 16 17 18 19 20 21 22 23 24 25 26 27 28 29 30 31 32 33 34 35 36 37 38 39 40 41 42 43 44 45 46 47 48 49 50
849
ASUS46 KSEW 042110
RWRWA

WASHINGTON REGIONAL WEATHER ROUNDUP
NATIONAL WEATHER SERVICE SEATTLE WA
100 PM PST SUN DEC 04 2016

NOTE:"FAIR" INDICATES FEW OR NO CLOUDS BELOW 12,000 FEET WITH NO
SIGNIFICANT WEATHER AND/OR OBSTRUCTIONS TO VISIBILITY.

WAZ507-509-555>559-042200-
SEATTLE, TACOMA, EVERETT, AND VICINITY

CITY           SKY/WX    TMP DP  RH WIND       PRES   REMARKS
EVERETT        CLOUDY    40  32  73 NW5       30.04S
BOEING FIELD   PTSUNNY   43  39  86 SE9       30.07S
RENTON         SUNNY     42  37  82 SE5       30.07S
SEATAC AIRPORT PTSUNNY   42  37  82 VRB3      30.06S
JBLM-MCCHORD   MOSUNNY   44  37  74 S7        30.06S
PUYALLUP       FAIR      45  36  70 CALM      30.06S
BREMERTON      MOSUNNY   43  36  75 SE5       30.09R
JBLM-FT LEWIS  SUNNY     45  35  67 SW3       30.06R
TACOMA NARROWS MOSUNNY   43  35  73 S6        30.06S
$$

WAZ001-503-506-510-514-515-042200-
NORTH INTERIOR

CITY           SKY/WX    TMP DP  RH WIND       PRES   REMARKS
BELLINGHAM     SUNNY     44  32  62 W13G21    30.02R
FRIDAY HARBOR  MOSUNNY   46  25  43 VRB5      30.06S
EASTSOUND      PTSUNNY   45  32  61 NW9       30.04R
PORT ANGELES   SUNNY     45  28  51 W18G25    30.07R
EDIZ HOOK      FAIR      46  29  53 W23G29    30.07R
PORT TOWNSEND  FAIR      46  30  53 NW18G28   30.05S
NAS WHIDBEY    PTSUNNY   48  25  40 W15       30.09S
ARLINGTON      MOSUNNY   45  23  42 NW14      30.06S
BURLINGTON     CLOUDY    43  30  61 VRB5G13   30.05R
$$

WAZ020-022-039-040-504-511-512-042200-
SOUTHWEST INTERIOR

CITY           SKY/WX    TMP DP  RH WIND       PRES   REMARKS
SHELTON        SUNNY     48  29  47 W9        30.03S
OLYMPIA        MOSUNNY   47  29  49 VRB3      30.06S
CHEHALIS       FAIR      48  36  61 VRB5G12   30.09S
KELSO          CLOUDY    47  36  65 VRB7      30.11F
VANCOUVER      PTSUNNY   46  35  65 W3        30.13S
SCAPPOOSE, OR  PTSUNNY   46  36  68 CALM      30.11F
PORTLAND, OR   PTSUNNY   46  34  62 NW9       30.13F
$$

WAZ021-516-517-042200-
WASHINGTON COAST

CITY           SKY/WX    TMP DP  RH WIND       PRES   REMARKS
FORKS          MOSUNNY   45  32  60 NW12G20   30.10R
HOQUIAM        SUNNY     47  35  63 NW9       30.09F
ASTORIA, OR    PTSUNNY   49  30  48 NW17G23   30.12F
$$

WAZ019-023-024-040-567>569-042200-
CASCADE MOUNTAINS AND COLUMBIA GORGE

CITY           SKY/WX    TMP DP  RH WIND       PRES   REMARKS
STAMPEDE PASS  SNOW      23  23 100 W10G23    29.86R VSB 1/4 WCI  12
TROUTDALE, OR  PTSUNNY   47  37  68 VRB6      30.13S
THE DALLES, OR MOSUNNY   47  33  58 W16G22    30.04R
$$

WAZ026-027-041>044-520-521-042200-
EAST SLOPES

CITY           SKY/WX    TMP DP  RH WIND       PRES   REMARKS
OMAK           MIX PCPN  35  27  72 N24G35    29.84R WCI  23
WENATCHEE      SUNNY     42  16  34 NW22G30   29.85R
ELLENSBURG     SUNNY     40  23  50 NW25G37   29.89R
YAKIMA         MOSUNNY   49  23  36 W16       29.91R
$$

WAZ028-034-035-042200-
COLUMBIA BASIN

CITY           SKY/WX    TMP DP  RH WIND       PRES   REMARKS
EPHRATA        SUNNY     43  12  28 NW24G32   29.83S
MOSES LAKE     MOSUNNY   46  19  34 NW21G26   29.84S
PASCO          CLOUDY    47  34  60 NW10      29.92R
HERMISTON, OR  MOSUNNY   47  34  60 W20G26    29.93R
$$

WAZ036>038-042200-
NORTHEAST WASHINGTON

CITY           SKY/WX    TMP DP  RH WIND       PRES   REMARKS
SPOKANE GEIGER PTSUNNY   38  29  70 W21       29.72F
SPOKANE FELTS  CLOUDY    41  32  70 W8G20     29.74S
FAIRCHILD AFB  PTSUNNY   39  30  69 W18       29.72F
COEURDALENE,ID CLOUDY    37  33  85 W12       29.72S
DEER PARK      CLOUDY    39  29  67 W14       29.72S
$$

WAZ029>033-042200-
SOUTHEAST WASHINGTON

CITY           SKY/WX    TMP DP  RH WIND       PRES   REMARKS
PULLMAN        CLOUDY    37  32  82 W17       29.79S
LEWISTON, ID   CLOUDY    42  34  73 W14G24    29.82S
WALLA WALLA    CLOUDY    42  36  79 SW14      29.90R
PENDLETON, OR  CLOUDY    41  32  70 W23G35    29.89F
$$




USA.gov is the U.S. government's official web portal to all federal, state and local government web resources and services.